GEFSCGP_500_meanwind_222.txt.gz
Wind_Speed
52 53 52 50 50 50 50 50 49 48 48 48 48 47 44 44 44 42 41 41 41 41 40 40 40 39 39 38 38 38 38 39 39 38 38 39 38 38 39 39 40 40 41 41
53 54 50 50 51 52 52 51 50 49 49 49 49 48 46 46 46 44 43 43 42 42 42 41 41 41 40 39 39 39 39 39 40 40 40 40 40 39 39 39 40 41 42 43
52 51 51 52 52 53 53 52 51 51 50 51 51 50 47 46 46 45 44 44 43 43 42 42 42 42 41 41 41 40 40 40 41 41 41 41 40 40 40 40 41 42 42 43
52 51 52 53 54 53 53 52 53 52 53 52 52 52 47 46 46 45 45 44 44 43 43 43 43 43 42 42 42 42 41 42 42 41 41 41 40 40 40 41 42 42 43 43
50 50 52 53 53 53 53 52 53 53 54 55 54 55 50 47 45 44 44 44 44 44 44 44 44 43 43 43 43 43 43 43 43 42 42 42 40 41 41 42 42 42 43 44
48 49 50 51 50 50 51 51 52 53 54 57 54 55 53 48 44 43 44 44 44 44 44 44 44 44 43 43 44 44 44 43 43 43 43 42 42 42 42 42 43 43 43 44
47 47 48 48 49 49 49 49 49 50 53 56 53 55 54 48 44 43 43 44 44 44 44 45 45 45 44 43 43 44 44 43 43 43 43 43 44 44 43 43 43 43 44 44
44 44 44 45 46 46 47 48 49 49 51 52 52 53 51 49 46 44 44 44 44 44 43 43 43 44 43 43 44 44 44 44 43 43 44 44 44 45 44 44 44 44 44 44
42 43 42 43 44 45 45 47 46 47 50 51 53 52 50 47 45 44 43 43 43 43 42 42 42 42 43 44 44 45 45 44 44 43 43 43 44 44 45 45 45 45 44 44
40 42 43 43 43 45 45 44 43 45 47 49 52 51 49 47 45 44 43 43 43 43 42 42 42 43 43 44 44 44 44 44 44 44 43 43 43 44 44 45 45 45 46 45
37 39 42 43 43 43 43 44 45 45 46 47 49 49 47 46 45 45 44 43 43 43 42 42 41 42 43 43 43 44 44 44 43 43 43 43 43 43 44 45 45 45 46 45
35 37 39 41 41 41 42 43 44 45 47 48 48 48 45 45 45 45 44 44 43 43 43 42 42 43 43 43 43 43 42 42 43 43 43 43 43 44 44 44 45 45 46 46
35 35 36 38 40 40 41 42 42 43 45 45 46 47 44 44 44 44 44 43 42 43 43 43 43 43 43 43 42 42 42 42 43 43 43 43 44 43 43 44 44 45 46 46
34 35 35 36 38 40 39 40 41 42 44 45 45 44 43 43 42 42 43 43 43 43 43 43 43 43 42 42 42 42 42 42 43 43 44 44 44 44 45 45 45 46 46 47
32 34 35 36 36 38 39 40 41 43 44 45 44 44 43 41 42 43 42 42 42 43 43 43 43 43 43 42 42 42 42 42 43 43 43 44 44 44 45 45 45 46 47 48
30 32 34 35 35 36 38 38 39 40 41 43 42 42 42 42 42 42 43 41 41 42 42 43 43 42 42 42 42 43 43 43 43 44 43 44 44 44 44 44 45 45 46 48
27 30 32 33 33 34 36 35 36 37 39 40 39 38 38 40 40 40 40 40 41 41 42 42 42 42 42 42 42 42 43 43 44 44 44 43 43 43 43 44 43 44 45 46
23 25 29 30 31 32 33 33 34 36 36 37 38 36 36 37 37 37 37 38 39 41 41 42 42 43 43 43 43 43 42 42 43 44 44 44 43 42 42 43 43 43 44 45
20 21 22 25 27 29 30 31 31 33 34 35 36 36 36 36 37 37 37 38 38 38 39 40 41 41 42 42 42 42 42 42 42 43 43 44 44 43 43 43 43 43 43 44
16 17 19 20 23 25 25 27 28 30 31 32 33 34 35 36 37 37 38 38 38 37 37 37 37 39 40 41 41 41 40 41 41 41 42 42 43 43 43 42 41 42 42 42
14 14 16 19 20 21 21 22 25 27 29 29 30 32 34 36 36 36 36 36 36 35 35 36 36 36 37 38 39 39 39 38 39 40 41 41 41 42 42 41 42 42 42 42
12 14 15 17 18 18 18 19 22 24 26 27 28 29 31 33 34 35 35 34 34 33 34 34 34 34 35 35 36 37 37 38 38 39 40 40 40 40 41 41 41 42 42 43
11 12 13 15 17 17 17 18 20 21 22 23 25 26 27 28 29 31 32 32 32 32 32 33 33 33 34 35 35 36 37 37 38 39 40 40 40 40 41 41 42 42 43 43
9 11 12 13 14 16 16 17 18 19 20 21 21 23 24 25 26 28 28 28 29 29 30 31 32 32 33 33 34 35 36 36 37 38 38 39 40 39 40 41 41 42 41 42
8 8 10 12 13 15 16 17 18 19 19 21 21 22 23 25 26 27 27 27 28 28 29 30 31 32 32 33 34 35 35 35 36 37 37 38 39 39 39 39 39 40 41 41
9 9 10 11 13 14 15 17 17 18 19 19 20 21 23 24 25 26 27 27 27 28 29 30 30 31 32 33 33 34 34 34 35 35 36 36 36 37 37 38 39 39 39 39

GEFSCGP_500_meanwind_228.txt.gz
Wind_Speed
50 52 52 52 53 54 54 54 53 51 51 52 51 50 47 48 48 48 47 47 46 45 45 44 44 43 43 42 41 40 40 39 38 38 38 38 38 38 38 39 39 39 39 39
49 51 50 51 52 54 55 56 54 53 53 53 53 52 49 49 49 48 48 47 47 47 47 46 46 45 44 43 42 42 41 41 40 40 40 40 40 40 39 40 40 40 40 40
48 48 49 51 52 53 55 55 55 54 54 54 54 54 51 49 50 49 48 47 47 48 48 48 47 46 45 44 43 43 43 42 42 41 41 41 42 41 41 41 41 41 41 41
46 46 48 50 51 51 52 52 53 54 55 55 55 55 52 50 50 49 48 48 47 47 48 48 48 48 46 45 45 44 44 43 43 42 42 42 42 41 41 42 42 42 42 41
44 45 47 49 50 50 50 50 50 52 54 56 56 56 55 51 50 49 48 48 47 47 47 48 48 48 47 47 46 45 45 45 44 43 42 42 42 42 42 42 42 42 42 43
41 43 46 47 47 48 47 48 48 49 51 55 54 55 56 53 50 48 48 48 48 47 48 48 48 48 48 48 47 46 46 45 45 44 43 43 43 43 43 43 43 43 42 43
37 39 42 43 45 46 46 46 46 46 49 53 52 54 55 52 49 48 48 48 48 48 48 48 48 48 48 47 47 46 46 45 45 44 44 44 44 43 43 43 43 43 43 43
36 37 38 41 42 43 44 45 45 45 47 49 51 52 52 51 49 48 48 48 47 48 48 47 48 48 48 47 47 47 46 46 45 45 44 44 44 44 43 42 43 43 43 43
34 36 36 38 40 41 41 43 43 43 44 45 48 49 50 49 48 47 47 47 47 47 47 47 48 48 48 47 47 47 46 46 45 45 45 45 44 44 44 43 44 44 43 43
31 34 36 36 37 39 41 40 41 44 43 43 45 45 46 46 46 45 46 46 46 46 46 47 47 48 48 48 47 47 46 46 45 45 45 45 45 45 45 45 45 45 44 43
28 31 33 36 36 37 38 40 41 42 45 44 44 45 44 43 43 43 43 44 45 45 46 46 46 47 47 47 47 46 46 46 46 46 46 46 46 46 46 47 46 46 45 44
25 27 30 32 34 36 38 39 40 40 41 43 44 45 43 41 41 41 42 43 44 45 46 46 46 46 46 47 46 46 46 46 46 47 47 47 47 47 47 47 47 46 45 45
21 24 27 28 31 33 35 37 38 39 39 40 41 42 40 40 40 41 41 42 43 44 45 45 45 45 46 46 46 46 47 46 46 46 46 47 48 48 48 47 48 47 46 45
20 21 24 26 28 31 32 33 35 37 39 39 39 40 39 38 39 40 40 40 41 43 44 45 45 45 45 46 46 46 46 46 46 46 47 47 47 47 47 47 47 47 47 47
22 21 22 24 26 29 31 32 33 36 38 39 39 39 39 39 39 39 40 40 41 42 43 43 44 45 45 45 46 45 45 45 45 46 46 46 46 47 47 47 47 48 48 48
21 21 21 23 24 26 29 31 32 34 36 37 38 39 39 39 39 39 39 40 40 42 43 43 43 44 44 45 46 46 46 46 46 46 46 46 46 46 47 46 46 47 47 48
18 19 20 20 23 26 28 28 30 32 34 37 39 38 38 39 39 39 39 39 40 40 41 42 43 43 44 44 45 45 45 45 46 46 46 46 47 47 47 47 47 47 47 47
15 18 19 19 21 24 26 28 29 31 32 34 36 37 37 37 38 37 37 37 38 39 39 41 42 42 43 43 44 44 45 45 45 45 46 46 47 47 47 47 47 48 48 48
13 15 17 17 18 21 23 25 28 30 30 32 34 36 36 36 37 37 37 37 36 36 38 39 40 41 41 41 42 42 43 44 44 44 45 46 46 46 46 46 46 46 46 47
11 12 14 15 15 17 20 22 24 27 29 31 32 33 35 36 37 36 36 37 36 36 37 38 38 39 40 40 41 41 41 42 43 43 43 44 45 45 45 44 45 45 45 45
8 10 12 13 14 15 17 19 21 23 25 28 30 31 32 34 34 34 34 34 35 36 36 37 37 37 38 39 39 40 40 41 42 43 43 44 44 44 44 44 44 44 44 43
6 7 9 11 12 13 15 17 20 21 23 25 27 28 30 31 32 32 32 32 33 34 35 36 36 36 37 37 38 38 38 39 41 42 42 43 43 44 44 44 44 44 43 43
6 7 8 10 11 11 12 15 17 19 21 23 24 25 27 27 29 30 30 31 32 32 33 34 35 35 35 36 36 37 37 38 38 39 41 42 42 43 43 44 43 43 43 43
5 6 7 8 10 11 12 14 14 16 18 20 22 22 23 25 26 27 28 29 29 30 31 33 34 33 34 34 35 35 35 36 36 37 39 40 41 42 42 43 43 42 42 42
6 6 7 8 9 10 10 12 13 14 16 17 19 21 21 22 23 24 25 27 28 29 29 30 31 31 31 32 33 34 34 35 36 36 36 37 38 39 40 41 41 41 42 42
7 8 8 8 9 10 10 11 12 13 15 16 18 19 20 20 21 22 24 26 27 28 28 28 28 29 30 31 32 33 33 34 34 35 35 35 36 37 37 38 38 39 40 40

GEFSCGP_500_meanwind_234.txt.gz
Wind_Speed
45 48 49 50 51 52 54 55 56 55 56 56 56 55 53 53 53 52 51 50 50 49 48 48 47 46 46 45 44 43 42 41 41 40 39 39 38 38 38 38 37 37 36 36
44 45 44 46 48 49 52 53 54 55 55 56 56 56 54 54 54 53 52 52 51 50 50 49 49 48 47 47 46 45 44 42 41 40 41 41 40 40 40 40 39 39 39 38
41 41 42 45 47 48 50 51 53 54 54 55 56 57 55 54 54 54 53 53 53 51 51 51 50 50 49 49 48 47 46 45 44 43 42 42 41 41 40 40 40 40 40 40
40 40 43 45 46 47 49 49 50 51 52 53 55 57 56 54 54 54 53 53 52 52 51 51 51 51 50 50 50 49 48 47 46 45 45 43 42 42 41 41 41 41 41 41
38 38 41 44 46 47 47 47 48 48 49 51 51 54 55 54 53 53 53 52 52 52 51 51 51 50 50 50 51 51 50 49 48 47 46 45 44 43 42 42 42 42 42 42
35 36 38 40 43 46 46 45 46 46 47 49 49 51 52 52 51 51 52 51 51 51 50 50 51 51 51 51 51 51 50 50 49 48 47 47 46 45 44 43 43 43 42 42
32 34 36 37 40 42 44 43 42 43 46 49 47 50 52 51 51 50 51 51 50 50 50 50 50 50 50 51 51 51 51 50 50 49 48 47 47 46 45 44 44 43 43 42
29 30 32 35 37 39 41 41 41 41 45 46 45 48 49 49 49 49 49 50 49 48 49 49 49 49 49 49 49 49 49 50 50 50 49 48 48 46 46 45 45 45 44 43
27 28 29 31 34 36 38 40 38 38 40 43 44 46 47 47 47 47 48 48 48 48 48 47 48 48 48 49 49 48 48 48 48 49 49 49 48 47 46 46 45 45 45 44
25 27 28 29 31 34 36 38 39 38 37 38 40 42 44 45 44 45 46 47 48 48 48 48 48 47 48 48 48 48 48 48 48 47 47 47 47 47 47 46 46 45 45 45
23 25 25 26 29 32 34 37 39 38 37 37 37 40 41 43 44 44 44 46 46 47 47 48 48 47 47 47 48 48 48 48 48 48 47 47 47 46 46 46 47 46 46 45
22 23 24 24 27 30 33 35 37 37 36 37 37 38 38 40 42 44 44 45 45 45 47 47 47 48 48 48 48 48 48 48 48 48 48 47 47 47 47 47 47 47 47 47
21 21 21 22 24 27 30 32 35 35 34 34 36 37 37 38 39 40 42 43 44 44 45 47 47 47 48 49 49 48 48 49 49 49 49 48 48 48 48 47 47 47 47 47
20 20 20 20 21 24 28 31 33 34 34 33 35 36 37 37 38 38 39 41 42 43 44 46 47 47 48 48 49 49 50 50 50 49 49 49 49 49 49 48 48 48 47 47
19 20 20 21 21 23 27 30 33 34 33 33 32 33 36 36 36 38 39 39 40 42 43 45 46 47 48 48 49 49 49 50 50 51 50 50 50 50 49 49 49 49 49 48
19 19 20 21 22 23 25 29 31 33 33 34 34 33 35 37 36 37 37 38 39 41 43 44 45 46 47 48 49 49 49 49 49 50 51 51 51 51 50 50 50 50 50 49
16 16 18 19 21 22 24 26 29 30 31 33 34 33 34 36 36 36 37 36 38 40 41 43 45 46 47 47 48 48 48 48 49 49 49 50 50 51 51 51 50 50 50 50
14 14 15 16 19 21 22 24 26 29 31 32 33 33 34 35 35 35 36 36 36 37 39 40 43 44 45 46 47 47 47 47 48 48 48 48 48 49 49 50 50 50 50 50
13 13 13 13 16 19 21 22 25 29 31 32 33 33 34 34 35 34 35 36 36 36 38 39 40 42 43 44 45 45 46 46 46 47 47 47 47 47 48 48 49 49 49 49
12 11 11 12 14 16 18 20 22 26 29 31 33 33 33 34 34 34 35 35 35 36 38 39 39 40 41 42 42 43 43 43 44 45 45 45 46 46 46 47 47 48 48 48
12 11 11 12 13 15 17 18 20 24 27 29 30 32 33 34 34 33 35 34 34 35 36 37 38 38 39 40 40 41 41 42 42 43 44 44 44 45 46 46 46 46 46 47
12 11 11 12 13 13 15 17 19 22 24 26 28 30 31 32 33 34 34 35 35 35 35 36 37 38 39 39 39 39 40 41 41 42 42 43 43 44 44 44 44 44 45 45
11 11 11 11 13 13 14 16 18 19 21 23 25 26 28 29 31 32 33 34 34 34 35 35 36 37 37 38 38 39 39 40 40 40 41 41 42 42 42 42 43 43 43 44
11 10 10 10 11 12 13 14 16 18 19 20 22 23 24 26 27 29 30 32 32 32 33 33 34 35 36 36 37 37 38 38 39 39 39 39 40 40 41 42 42 42 42 43
11 10 10 10 11 12 13 14 15 16 17 19 20 20 21 22 23 25 27 29 30 30 31 32 33 34 34 34 35 36 37 37 37 37 37 37 38 37 38 39 40 41 42 42
11 11 10 11 11 12 13 13 14 15 16 17 18 19 20 21 22 23 24 26 28 29 29 29 30 31 32 33 33 34 35 36 36 36 36 36 36 37 37 37 38 39 40 41

GEFSCGP_500_meanwind_240.txt.gz
Wind_Speed
42 44 46 47 48 49 52 55 56 56 56 57 57 56 55 56 56 56 55 55 53 52 51 51 50 49 48 47 46 44 43 43 43 42 41 41 39 38 37 37 36 36 35 34
41 43 43 44 45 46 50 52 54 55 55 56 56 57 56 56 57 57 57 56 55 53 53 53 52 51 50 49 47 46 45 44 44 43 43 42 42 41 40 39 38 38 37 37
38 39 40 42 42 44 47 49 50 52 53 54 54 56 56 56 56 56 57 57 56 54 54 54 53 52 51 50 48 47 46 46 45 45 45 44 44 42 41 40 40 39 39 39
35 36 37 39 40 41 44 46 47 49 50 52 53 55 55 54 54 55 55 56 56 55 54 54 53 52 51 50 49 49 48 47 46 46 46 45 45 44 42 42 41 41 40 40
31 32 33 36 37 38 40 42 45 46 48 50 51 52 53 53 54 53 53 54 55 54 54 54 53 52 51 51 50 49 49 48 48 47 47 46 46 45 45 44 43 42 41 41
26 27 29 31 34 36 37 39 42 44 46 50 49 51 52 52 52 51 52 53 53 53 53 53 52 51 51 50 50 49 49 49 48 48 47 47 47 46 46 45 44 43 43 42
22 23 26 28 30 33 35 36 39 42 44 48 47 49 51 49 49 50 51 51 51 52 52 51 52 51 51 51 50 50 50 49 49 49 48 48 47 47 46 46 45 44 43 43
21 20 23 25 27 28 31 34 37 39 43 45 46 47 47 47 47 47 49 50 50 51 51 51 51 51 50 50 50 50 50 50 50 50 49 49 49 48 47 47 46 45 44 43
19 19 21 24 25 26 27 32 33 34 37 39 41 44 45 45 44 45 46 48 48 49 50 50 51 51 50 50 49 50 50 50 50 50 49 49 49 48 48 47 47 46 45 45
18 19 19 22 25 26 26 28 31 32 33 36 39 42 43 43 43 43 44 46 47 48 49 49 50 51 51 50 50 50 50 50 50 50 49 49 49 49 48 48 47 46 46 46
18 18 19 21 23 25 26 27 30 33 33 33 37 40 40 41 41 41 43 44 45 46 48 49 49 50 50 51 50 50 50 50 49 49 49 49 50 49 49 48 48 47 47 46
17 18 19 21 23 23 25 27 28 31 34 35 34 36 38 39 40 40 41 42 43 45 46 47 48 49 50 50 50 50 50 50 49 49 49 49 50 50 49 49 49 48 48 48
15 16 17 18 21 21 23 27 28 29 31 34 34 34 36 37 37 38 40 42 43 44 46 47 47 48 49 49 50 50 50 49 49 49 49 49 50 50 50 49 49 49 49 49
15 15 15 16 17 20 22 24 25 27 31 33 33 33 35 36 36 36 38 41 42 43 44 46 47 47 48 49 49 50 50 50 49 49 49 50 50 50 50 50 50 50 50 49
15 14 14 15 16 18 22 23 23 24 28 31 31 30 31 34 34 34 36 38 40 42 43 44 46 47 48 49 49 49 50 51 50 50 50 50 50 50 50 50 50 50 50 50
14 13 13 14 15 17 20 22 23 24 27 29 30 29 29 31 32 32 33 35 37 39 42 44 45 45 47 48 49 49 49 50 51 51 50 49 49 49 50 50 50 50 50 49
14 13 12 13 15 16 18 20 22 24 26 29 30 30 30 30 31 32 32 33 35 37 39 41 43 44 45 46 47 48 49 49 49 50 51 51 50 50 49 50 50 50 51 50
12 12 12 12 12 14 16 18 21 24 26 29 31 31 30 30 30 31 32 33 34 35 36 38 40 42 44 46 47 47 48 49 49 49 50 50 50 50 50 50 50 51 50 50
12 12 11 11 12 12 14 16 19 22 26 29 29 29 29 30 31 31 31 32 33 34 36 37 38 40 41 43 45 46 46 47 48 49 49 49 50 50 50 50 50 50 50 50
12 11 11 11 12 13 14 15 18 20 23 27 29 29 29 30 30 31 32 32 33 33 34 35 37 38 39 41 42 44 45 46 47 47 48 49 49 49 50 50 50 49 50 50
12 11 11 11 12 12 13 14 17 20 22 25 28 28 29 31 31 30 30 31 32 32 32 33 34 36 38 39 41 42 43 43 44 45 46 47 47 47 48 49 49 49 49 49
13 13 12 12 11 11 12 14 16 17 20 23 25 26 27 29 30 30 29 29 30 31 32 32 33 34 35 37 39 40 41 41 42 42 43 44 44 45 46 46 47 48 48 48
14 13 13 12 12 11 12 12 14 15 17 20 22 24 25 26 28 28 29 29 29 30 31 32 32 32 33 35 36 38 39 40 40 41 41 42 42 43 44 45 46 46 46 46
14 14 14 13 12 11 12 12 13 14 15 17 19 22 24 25 27 27 27 29 30 30 30 31 31 31 31 33 35 36 37 38 39 39 39 40 40 41 41 41 43 44 45 45
15 14 14 13 12 11 11 12 13 13 14 16 18 20 22 25 26 26 26 28 29 29 30 30 31 32 32 33 34 35 36 37 38 39 39 39 39 40 40 40 40 41 42 43
15 15 14 13 12 11 11 11 11 12 14 15 17 19 20 21 23 24 24 26 27 28 29 30 31 31 32 33 34 35 36 37 38 38 38 39 39 40 40 40 40 41 41 41